OCN134 HKMO-HTZA

Flight info

Callsign OCN134
Flight time 0h 28m
Altitude 16000
Route IMSIS2A UVUKO DCT OKPOL DCT IMTOM DCT IMVIV
Aircraft A332/H-SDE2E3FGHIJ3J4J5LM1OP2RWXYZ/LB1D1

Departure

Time 2026-05-07 09:42
Airport Moi International Airport (HKMO)

Arrival

Time 2026-05-07 10:10
Airport Abeid Amani Karume International Airport (HTZA)
Time Latitude Longitude Altitude Speed Heading
2026-05-07 09:11 -4.03206 39.60199 209 ft 0 kts 118°
2026-05-07 09:25 -4.03198 39.60184 214 ft 4 kts 111°
2026-05-07 09:25 -4.03191 39.60159 211 ft 4 kts 99°
2026-05-07 09:26 -4.03188 39.60132 209 ft 4 kts 82°
2026-05-07 09:26 -4.03197 39.60114 219 ft 2 kts 29°
2026-05-07 09:26 -4.03198 39.60113 209 ft 1 kts 29°
2026-05-07 09:27 -4.03197 39.60113 209 ft 0 kts 29°
2026-05-07 09:29 -4.03210 39.60208 214 ft 0 kts 119°
2026-05-07 09:31 -4.03210 39.60207 209 ft 1 kts 119°
2026-05-07 09:31 -4.03198 39.60185 209 ft 4 kts 111°
2026-05-07 09:31 -4.03191 39.60159 209 ft 4 kts 99°
2026-05-07 09:32 -4.03188 39.60133 214 ft 4 kts 83°
2026-05-07 09:32 -4.03196 39.60114 219 ft 2 kts 29°
2026-05-07 09:32 -4.03198 39.60113 209 ft 1 kts 29°
2026-05-07 09:35 -4.03195 39.60115 209 ft 2 kts 29°
2026-05-07 09:35 -4.03169 39.60129 209 ft 7 kts 29°
2026-05-07 09:35 -4.03120 39.60156 214 ft 9 kts 24°
2026-05-07 09:36 -4.03066 39.60132 219 ft 10 kts 304°
2026-05-07 09:36 -4.03025 39.60061 220 ft 13 kts 299°
2026-05-07 09:36 -4.02993 39.60005 218 ft 15 kts 298°
2026-05-07 09:36 -4.02923 39.59946 217 ft 13 kts 13°
2026-05-07 09:37 -4.02839 39.59991 218 ft 14 kts 29°
2026-05-07 09:37 -4.02748 39.60041 219 ft 16 kts 29°
2026-05-07 09:37 -4.02648 39.60097 220 ft 17 kts 29°
2026-05-07 09:37 -4.02541 39.60157 220 ft 18 kts 30°
2026-05-07 09:38 -4.02427 39.60221 213 ft 19 kts 29°
2026-05-07 09:38 -4.02306 39.60289 212 ft 20 kts 28°
2026-05-07 09:38 -4.02192 39.60353 213 ft 19 kts 29°
2026-05-07 09:38 -4.02084 39.60413 219 ft 17 kts 29°
2026-05-07 09:39 -4.01980 39.60471 217 ft 18 kts 29°
2026-05-07 09:39 -4.01868 39.60534 215 ft 19 kts 29°
2026-05-07 09:39 -4.01749 39.60600 218 ft 20 kts 29°
2026-05-07 09:39 -4.01641 39.60660 217 ft 16 kts 29°
2026-05-07 09:40 -4.01567 39.60702 219 ft 11 kts 30°
2026-05-07 09:40 -4.01497 39.60734 215 ft 9 kts 17°
2026-05-07 09:40 -4.01428 39.60735 209 ft 11 kts 346°
2026-05-07 09:40 -4.01358 39.60700 219 ft 12 kts 324°
2026-05-07 09:41 -4.01343 39.60632 220 ft 10 kts 236°
2026-05-07 09:41 -4.01370 39.60612 209 ft 1 kts 209°
2026-05-07 09:41 -4.01445 39.60570 209 ft 41 kts 209°
2026-05-07 09:41 -4.01889 39.60323 214 ft 103 kts 208°
2026-05-07 09:42 -4.02670 39.59884 223 ft 153 kts 212°
2026-05-07 09:42 -4.03617 39.59306 664 ft 163 kts 208°
2026-05-07 09:42 -4.04589 39.58770 1411 ft 156 kts 206°
2026-05-07 09:42 -4.05593 39.58228 1864 ft 175 kts 206°
2026-05-07 09:43 -4.06750 39.57595 2093 ft 203 kts 206°
2026-05-07 09:43 -4.08063 39.56872 2390 ft 228 kts 206°
2026-05-07 09:43 -4.09518 39.56065 2701 ft 250 kts 206°
2026-05-07 09:43 -4.11059 39.55201 3448 ft 256 kts 207°
2026-05-07 09:44 -4.12605 39.54339 4369 ft 256 kts 208°
2026-05-07 09:44 -4.14171 39.53460 5171 ft 260 kts 207°
2026-05-07 09:44 -4.15772 39.52562 5933 ft 267 kts 207°
2026-05-07 09:44 -4.17401 39.51647 6771 ft 270 kts 207°
2026-05-07 09:45 -4.19048 39.50724 7628 ft 273 kts 207°
2026-05-07 09:45 -4.20716 39.49789 8497 ft 276 kts 207°
2026-05-07 09:45 -4.22382 39.48857 9413 ft 281 kts 207°
2026-05-07 09:45 -4.24135 39.47951 10335 ft 289 kts 201°
2026-05-07 09:46 -4.26134 39.47457 10740 ft 307 kts 184°
2026-05-07 09:46 -4.28338 39.47475 11109 ft 325 kts 176°
2026-05-07 09:46 -4.30637 39.47628 11676 ft 334 kts 176°
2026-05-07 09:46 -4.32971 39.47794 12391 ft 339 kts 176°
2026-05-07 09:47 -4.35340 39.47954 13098 ft 345 kts 176°
2026-05-07 09:47 -4.37746 39.48110 13815 ft 348 kts 176°
2026-05-07 09:47 -4.40187 39.48263 14372 ft 355 kts 176°
2026-05-07 09:47 -4.42666 39.48417 14993 ft 358 kts 176°
2026-05-07 09:48 -4.45164 39.48570 15618 ft 361 kts 176°
2026-05-07 09:48 -4.47671 39.48721 16263 ft 363 kts 176°
2026-05-07 09:48 -4.50216 39.48875 16819 ft 368 kts 176°
2026-05-07 09:48 -4.52791 39.49031 17365 ft 373 kts 176°
2026-05-07 09:49 -4.55402 39.49189 17885 ft 378 kts 176°
2026-05-07 09:49 -4.58037 39.49348 18449 ft 380 kts 175°
2026-05-07 09:49 -4.60686 39.49509 18802 ft 383 kts 175°
2026-05-07 09:49 -4.63342 39.49670 18922 ft 381 kts 176°
2026-05-07 09:50 -4.65980 39.49829 18942 ft 379 kts 175°
2026-05-07 09:50 -4.68607 39.49981 18939 ft 379 kts 177°
2026-05-07 09:50 -4.71244 39.49837 18940 ft 381 kts 186°
2026-05-07 09:50 -4.73859 39.49378 18935 ft 382 kts 190°
2026-05-07 09:51 -4.76444 39.48763 18941 ft 382 kts 193°
2026-05-07 09:51 -4.79012 39.48078 18943 ft 383 kts 194°
2026-05-07 09:51 -4.81582 39.47375 18938 ft 383 kts 194°
2026-05-07 09:51 -4.84157 39.46682 18940 ft 383 kts 193°
2026-05-07 09:52 -4.86729 39.46007 18948 ft 382 kts 193°
2026-05-07 09:52 -4.89307 39.45346 18940 ft 382 kts 192°
2026-05-07 09:52 -4.91889 39.44696 18870 ft 385 kts 192°
2026-05-07 09:52 -4.94501 39.44044 18651 ft 388 kts 192°
2026-05-07 09:53 -4.97120 39.43393 18433 ft 387 kts 192°
2026-05-07 09:53 -4.99733 39.42743 18203 ft 386 kts 193°
2026-05-07 09:53 -5.02331 39.42099 17948 ft 384 kts 193°
2026-05-07 09:53 -5.04882 39.41467 17693 ft 382 kts 192°
2026-05-07 09:54 -5.07451 39.40829 17449 ft 379 kts 193°
2026-05-07 09:54 -5.10008 39.40194 17188 ft 378 kts 193°
2026-05-07 09:54 -5.12529 39.39567 16899 ft 369 kts 193°
2026-05-07 09:54 -5.15004 39.38950 16465 ft 365 kts 193°
2026-05-07 09:55 -5.17462 39.38338 16011 ft 362 kts 192°
2026-05-07 09:55 -5.19901 39.37732 15554 ft 360 kts 193°
2026-05-07 09:55 -5.22323 39.37129 15095 ft 358 kts 193°
2026-05-07 09:55 -5.24727 39.36530 14631 ft 355 kts 193°
2026-05-07 09:56 -5.27113 39.35935 14182 ft 352 kts 193°
2026-05-07 09:56 -5.29480 39.35345 13740 ft 349 kts 193°
2026-05-07 09:56 -5.31832 39.34759 13257 ft 347 kts 193°
2026-05-07 09:56 -5.34160 39.34178 12798 ft 343 kts 193°
2026-05-07 09:57 -5.36462 39.33605 12366 ft 339 kts 193°
2026-05-07 09:57 -5.38737 39.33038 11951 ft 336 kts 193°
2026-05-07 09:57 -5.40990 39.32477 11552 ft 331 kts 193°
2026-05-07 09:57 -5.43220 39.31921 11140 ft 329 kts 193°
2026-05-07 09:58 -5.45433 39.31370 10723 ft 327 kts 193°
2026-05-07 09:58 -5.47630 39.30823 10386 ft 321 kts 193°
2026-05-07 09:58 -5.49746 39.30295 10307 ft 306 kts 193°
2026-05-07 09:58 -5.51768 39.29789 10192 ft 294 kts 192°
2026-05-07 09:59 -5.53717 39.29303 10059 ft 284 kts 192°
2026-05-07 09:59 -5.55611 39.28831 9908 ft 277 kts 192°
2026-05-07 09:59 -5.57488 39.28364 9531 ft 278 kts 192°
2026-05-07 09:59 -5.59366 39.27896 9199 ft 278 kts 193°
2026-05-07 10:00 -5.61239 39.27428 8883 ft 276 kts 192°
2026-05-07 10:00 -5.63101 39.26965 8559 ft 275 kts 192°
2026-05-07 10:00 -5.64952 39.26502 8243 ft 274 kts 193°
2026-05-07 10:00 -5.66799 39.26040 7935 ft 273 kts 192°
2026-05-07 10:01 -5.68637 39.25582 7627 ft 272 kts 193°
2026-05-07 10:01 -5.70472 39.25125 7300 ft 272 kts 193°
2026-05-07 10:01 -5.72314 39.24662 6988 ft 275 kts 191°
2026-05-07 10:01 -5.74189 39.24203 6660 ft 279 kts 192°
2026-05-07 10:02 -5.76078 39.23739 6376 ft 278 kts 193°
2026-05-07 10:02 -5.77945 39.23277 6011 ft 275 kts 193°
2026-05-07 10:02 -5.79800 39.22814 5654 ft 274 kts 193°
2026-05-07 10:02 -5.81642 39.22350 5325 ft 271 kts 193°
2026-05-07 10:03 -5.83459 39.21889 5004 ft 267 kts 193°
2026-05-07 10:03 -5.85256 39.21436 4692 ft 265 kts 193°
2026-05-07 10:03 -5.87038 39.21000 4361 ft 263 kts 193°
2026-05-07 10:03 -5.88804 39.20560 4043 ft 258 kts 193°
2026-05-07 10:04 -5.90543 39.20128 3724 ft 257 kts 193°
2026-05-07 10:04 -5.92298 39.19762 3417 ft 257 kts 184°
2026-05-07 10:04 -5.94095 39.19747 3071 ft 259 kts 179°
2026-05-07 10:04 -5.95887 39.19796 2975 ft 260 kts 177°
2026-05-07 10:05 -5.97702 39.19936 2994 ft 262 kts 174°
2026-05-07 10:05 -5.99501 39.20113 2969 ft 256 kts 173°
2026-05-07 10:05 -6.01219 39.20312 2980 ft 238 kts 172°
2026-05-07 10:05 -6.02801 39.20502 3011 ft 220 kts 172°
2026-05-07 10:06 -6.04259 39.20678 3013 ft 203 kts 173°
2026-05-07 10:06 -6.05620 39.20836 2997 ft 189 kts 173°
2026-05-07 10:06 -6.06879 39.20959 2821 ft 183 kts 174°
2026-05-07 10:06 -6.08172 39.21073 2556 ft 186 kts 173°
2026-05-07 10:07 -6.09453 39.21204 2291 ft 184 kts 173°
2026-05-07 10:07 -6.10699 39.21332 2053 ft 181 kts 173°
2026-05-07 10:07 -6.11944 39.21457 1829 ft 179 kts 174°
2026-05-07 10:07 -6.13184 39.21581 1592 ft 178 kts 173°
2026-05-07 10:08 -6.14366 39.21700 1376 ft 162 kts 174°
2026-05-07 10:08 -6.15437 39.21807 1166 ft 147 kts 173°
2026-05-07 10:08 -6.16413 39.21906 987 ft 135 kts 174°
2026-05-07 10:08 -6.17331 39.21998 824 ft 131 kts 175°
2026-05-07 10:09 -6.18245 39.22089 674 ft 134 kts 176°
2026-05-07 10:09 -6.19164 39.22194 486 ft 135 kts 175°
2026-05-07 10:09 -6.20086 39.22291 279 ft 132 kts 176°
2026-05-07 10:09 -6.20999 39.22373 110 ft 132 kts 176°
2026-05-07 10:10 -6.21836 39.22454 57 ft 98 kts 174°
2026-05-07 10:10 -6.22422 39.22512 53 ft 76 kts 174°
2026-05-07 10:10 -6.22905 39.22561 55 ft 64 kts 174°
2026-05-07 10:10 -6.23256 39.22596 59 ft 40 kts 174°
2026-05-07 10:11 -6.23524 39.22623 56 ft 38 kts 174°
2026-05-07 10:11 -6.23735 39.22644 52 ft 13 kts 174°
2026-05-07 10:11 -6.23806 39.22609 48 ft 12 kts 248°
2026-05-07 10:11 -6.23815 39.22523 54 ft 10 kts 274°
2026-05-07 10:12 -6.23769 39.22477 52 ft 10 kts 344°
2026-05-07 10:12 -6.23693 39.22469 56 ft 12 kts 354°
2026-05-07 10:12 -6.23606 39.22460 51 ft 13 kts 354°
2026-05-07 10:12 -6.23508 39.22450 51 ft 15 kts 354°
2026-05-07 10:13 -6.23400 39.22439 55 ft 16 kts 354°
2026-05-07 10:13 -6.23284 39.22427 52 ft 17 kts 355°
2026-05-07 10:13 -6.23171 39.22417 54 ft 17 kts 354°
2026-05-07 10:13 -6.23049 39.22403 56 ft 18 kts 354°
2026-05-07 10:14 -6.22918 39.22391 58 ft 19 kts 354°
2026-05-07 10:14 -6.22779 39.22377 52 ft 21 kts 354°
2026-05-07 10:14 -6.22633 39.22362 57 ft 22 kts 354°
2026-05-07 10:14 -6.22478 39.22347 52 ft 22 kts 355°
2026-05-07 10:15 -6.22398 39.22336 53 ft 7 kts 336°
2026-05-07 10:15 -6.22384 39.22296 60 ft 6 kts 264°
2026-05-07 10:15 -6.22387 39.22269 60 ft 2 kts 264°
2026-05-07 10:15 -6.22382 39.22259 60 ft 4 kts 301°
2026-05-07 10:16 -6.22347 39.22244 52 ft 6 kts 353°
2026-05-07 10:16 -6.22332 39.22243 60 ft 0 kts 353°